TimeCDT,TemperatureF,Dew PointF,Humidity,Sea Level PressureIn,VisibilityMPH,Wind Direction,Wind SpeedMPH,Gust SpeedMPH,PrecipitationIn,Events,Conditions,WindDirDegrees,DateUTC
12:53 AM,-9999,-9999,N/A,30.19,-9999.0,North,-9999.0,-,N/A,Rain,Light Rain,0,2012-10-07 05:53:00
1:53 AM,-9999,-9999,N/A,30.19,-9999.0,North,-9999.0,-,N/A,Rain,Light Rain,0,2012-10-07 06:53:00
2:53 AM,-9999,-9999,N/A,30.18,-9999.0,North,-9999.0,-,N/A,Rain,Light Rain,0,2012-10-07 07:53:00
3:53 AM,-9999,-9999,N/A,30.19,-9999.0,North,-9999.0,-,N/A,Rain,Light Rain,0,2012-10-07 08:53:00
4:53 AM,-9999,-9999,N/A,30.20,-9999.0,North,-9999.0,-,N/A,Rain,Light Rain,0,2012-10-07 09:53:00
5:53 AM,-9999,-9999,N/A,30.21,-9999.0,North,-9999.0,-,N/A,Rain,Light Rain,0,2012-10-07 10:53:00
6:53 AM,-9999,-9999,N/A,30.23,10.0,NW,6.9,-,N/A,,Mostly Cloudy,320,2012-10-07 11:53:00
7:53 AM,-9999,-9999,N/A,30.26,10.0,NW,8.1,-,N/A,,Scattered Clouds,320,2012-10-07 12:53:00
8:53 AM,-9999,-9999,N/A,30.25,10.0,NNW,8.1,-,N/A,,Scattered Clouds,330,2012-10-07 13:53:00
9:53 AM,-9999,-9999,N/A,30.25,10.0,North,4.6,-,N/A,,Scattered Clouds,360,2012-10-07 14:53:00
10:53 AM,-9999,-9999,N/A,30.25,-9999.0,North,-9999.0,-,N/A,,Unknown,0,2012-10-07 15:53:00
11:53 AM,53.1,37.9,57,30.24,10.0,Variable,3.5,-,N/A,,Clear,0,2012-10-07 16:53:00
12:53 PM,55.0,36.0,49,30.23,10.0,NNW,9.2,-,N/A,,Clear,340,2012-10-07 17:53:00
1:53 PM,57.0,34.0,42,30.20,10.0,NNW,6.9,-,N/A,,Clear,340,2012-10-07 18:53:00
2:53 PM,55.9,35.1,45,30.19,10.0,Calm,Calm,-,N/A,,Clear,0,2012-10-07 19:53:00
3:53 PM,57.9,35.1,42,30.18,-9999.0,North,-9999.0,-,N/A,,Unknown,0,2012-10-07 20:53:00
3:54 PM,57.2,35.6,44,30.18,10.0,NNW,8.1,-,N/A,,Clear,340,2012-10-07 20:54:00
4:53 PM,-9999,-9999,N/A,30.17,10.0,North,9.2,-,N/A,,Clear,350,2012-10-07 21:53:00
5:53 PM,-9999,-9999,N/A,30.17,10.0,North,6.9,-,N/A,,Clear,350,2012-10-07 22:53:00
6:53 PM,-9999,-9999,N/A,30.16,10.0,North,5.8,-,N/A,,Clear,350,2012-10-07 23:53:00
7:53 PM,-9999,-9999,N/A,30.17,-9999.0,North,-9999.0,-,N/A,,Unknown,0,2012-10-08 00:53:00
8:53 PM,-9999,-9999,N/A,30.19,-9999.0,North,-9999.0,-,N/A,,Unknown,0,2012-10-08 01:53:00
9:53 PM,-9999,-9999,N/A,30.19,-9999.0,North,-9999.0,-,N/A,,Unknown,0,2012-10-08 02:53:00
10:53 PM,-9999,-9999,N/A,30.19,-9999.0,North,-9999.0,-,N/A,,Unknown,0,2012-10-08 03:53:00
11:53 PM,-9999,-9999,N/A,30.18,-9999.0,North,-9999.0,-,N/A,,Unknown,0,2012-10-08 04:53:00